Time,TemperatureF,DewpointF,PressureIn,WindDirection,WindDirectionDegrees,WindSpeedMPH,WindSpeedGustMPH,Humidity,HourlyPrecipIn,Conditions,Clouds,dailyrainin,SoftwareType,DateUTC
2013-01-19 00:15:00,38.2,26.0,30.30,SW,236,1.0,7.0,62,0.00,,,0.00,weatherlink.com 1.10,2013-01-19 05:15:00,
2013-01-19 00:30:00,38.5,26.0,30.30,SW,233,7.0,8.0,61,0.00,,,0.00,weatherlink.com 1.10,2013-01-19 05:30:00,
2013-01-19 00:45:00,38.9,26.0,30.30,SW,232,4.0,8.0,61,0.00,,,0.00,weatherlink.com 1.10,2013-01-19 05:45:00,
2013-01-19 01:00:00,39.2,27.0,30.30,SSW,201,4.0,10.0,61,0.00,,,0.00,weatherlink.com 1.10,2013-01-19 06:00:00,
2013-01-19 01:15:00,39.2,27.0,30.29,SW,219,6.0,9.0,61,0.00,,,0.00,weatherlink.com 1.10,2013-01-19 06:15:00,
2013-01-19 01:30:00,39.5,26.0,30.29,SW,235,8.0,11.0,60,0.00,,,0.00,weatherlink.com 1.10,2013-01-19 06:30:00,
2013-01-19 01:45:00,39.5,27.0,30.29,WSW,242,5.0,10.0,61,0.00,,,0.00,weatherlink.com 1.10,2013-01-19 06:45:00,
2013-01-19 02:00:00,39.5,27.0,30.29,SW,215,3.0,11.0,61,0.00,,,0.00,weatherlink.com 1.10,2013-01-19 07:00:00,
2013-01-19 02:15:00,39.9,27.0,30.28,SW,222,4.0,9.0,61,0.00,,,0.00,weatherlink.com 1.10,2013-01-19 07:15:00,
2013-01-19 02:30:00,39.9,27.0,30.29,SSW,195,4.0,13.0,60,0.00,,,0.00,weatherlink.com 1.10,2013-01-19 07:30:00,
2013-01-19 02:45:00,40.2,27.0,30.29,SSE,156,1.0,13.0,60,0.00,,,0.00,weatherlink.com 1.10,2013-01-19 07:45:00,
2013-01-19 03:00:00,40.1,27.0,30.28,SSW,205,4.0,11.0,60,0.00,,,0.00,weatherlink.com 1.10,2013-01-19 08:00:00,
2013-01-19 03:15:00,40.2,27.0,30.28,South,187,5.0,10.0,60,0.00,,,0.00,weatherlink.com 1.10,2013-01-19 08:15:00,
2013-01-19 03:30:00,40.2,27.0,30.27,SW,221,7.0,10.0,60,0.00,,,0.00,weatherlink.com 1.10,2013-01-19 08:30:00,
2013-01-19 03:45:00,40.3,27.0,30.27,SW,232,5.0,12.0,60,0.00,,,0.00,weatherlink.com 1.10,2013-01-19 08:45:00,
2013-01-19 04:00:00,40.1,27.0,30.26,SSW,205,3.0,10.0,60,0.00,,,0.00,weatherlink.com 1.10,2013-01-19 09:00:00,
2013-01-19 04:15:00,40.4,27.0,30.26,SW,218,2.0,12.0,59,0.00,,,0.00,weatherlink.com 1.10,2013-01-19 09:15:00,
2013-01-19 04:30:00,40.3,27.0,30.26,SW,231,6.0,11.0,59,0.00,,,0.00,weatherlink.com 1.10,2013-01-19 09:30:00,
2013-01-19 04:45:00,40.1,27.0,30.26,SW,222,5.0,12.0,59,0.00,,,0.00,weatherlink.com 1.10,2013-01-19 09:45:00,
2013-01-19 05:00:00,39.9,26.0,30.26,SW,224,7.0,13.0,59,0.00,,,0.00,weatherlink.com 1.10,2013-01-19 10:00:00,
2013-01-19 05:15:00,39.9,27.0,30.26,SSW,211,6.0,10.0,60,0.00,,,0.00,weatherlink.com 1.10,2013-01-19 10:15:00,
2013-01-19 05:30:00,39.7,27.0,30.26,SW,217,4.0,10.0,60,0.00,,,0.00,weatherlink.com 1.10,2013-01-19 10:30:00,
2013-01-19 05:45:00,39.6,27.0,30.26,South,191,7.0,12.0,61,0.00,,,0.00,weatherlink.com 1.10,2013-01-19 10:45:00,
2013-01-19 06:00:00,39.3,27.0,30.26,SW,235,6.0,10.0,62,0.00,,,0.00,weatherlink.com 1.10,2013-01-19 11:00:00,
2013-01-19 08:01:00,38.4,28.0,30.25,SW,222,5.0,10.0,66,0.00,,,0.00,weatherlink.com 1.10,2013-01-19 13:01:00,
2013-01-19 08:16:00,38.6,28.0,30.25,SW,235,2.0,9.0,66,0.00,,,0.00,weatherlink.com 1.10,2013-01-19 13:16:00,
2013-01-19 08:31:00,39.0,28.0,30.25,SSW,203,7.0,10.0,65,0.00,,,0.00,weatherlink.com 1.10,2013-01-19 13:31:00,
2013-01-19 08:46:00,39.7,28.0,30.25,WSW,246,9.0,11.0,63,0.00,,,0.00,weatherlink.com 1.10,2013-01-19 13:46:00,
2013-01-19 09:01:00,40.5,28.0,30.25,SW,226,6.0,11.0,61,0.00,,,0.00,weatherlink.com 1.10,2013-01-19 14:01:00,
2013-01-19 09:16:00,41.3,28.0,30.24,SE,143,5.0,12.0,60,0.00,,,0.00,weatherlink.com 1.10,2013-01-19 14:16:00,
2013-01-19 09:31:00,42.0,28.0,30.25,West,260,10.0,13.0,58,0.00,,,0.00,weatherlink.com 1.10,2013-01-19 14:31:00,
2013-01-19 09:46:00,42.6,29.0,30.24,SW,214,4.0,17.0,58,0.00,,,0.00,weatherlink.com 1.10,2013-01-19 14:46:00,
2013-01-19 10:01:00,43.1,29.0,30.24,SSW,208,6.0,20.0,57,0.00,,,0.00,weatherlink.com 1.10,2013-01-19 15:01:00,
2013-01-19 10:16:00,43.7,29.0,30.24,WSW,250,7.0,13.0,57,0.00,,,0.00,weatherlink.com 1.10,2013-01-19 15:16:00,
2013-01-19 10:31:00,44.4,30.0,30.24,South,184,5.0,19.0,58,0.00,,,0.00,weatherlink.com 1.10,2013-01-19 15:31:00,
2013-01-19 10:46:00,45.4,30.0,30.23,SW,233,9.0,15.0,55,0.00,,,0.00,weatherlink.com 1.10,2013-01-19 15:46:00,
2013-01-19 11:01:00,46.1,30.0,30.22,WSW,248,10.0,13.0,54,0.00,,,0.00,weatherlink.com 1.10,2013-01-19 16:01:00,
2013-01-19 11:16:00,47.0,30.0,30.20,SSW,192,6.0,12.0,53,0.00,,,0.00,weatherlink.com 1.10,2013-01-19 16:16:00,
2013-01-19 11:31:00,48.0,29.0,30.19,SSW,208,6.0,14.0,49,0.00,,,0.00,weatherlink.com 1.10,2013-01-19 16:31:00,
2013-01-19 11:46:00,48.5,29.0,30.19,SSW,211,5.0,18.0,47,0.00,,,0.00,weatherlink.com 1.10,2013-01-19 16:46:00,
2013-01-19 12:01:00,49.1,30.0,30.17,SSW,207,5.0,15.0,48,0.00,,,0.00,weatherlink.com 1.10,2013-01-19 17:01:00,
2013-01-19 12:16:00,49.7,30.0,30.16,SW,234,11.0,17.0,47,0.00,,,0.00,weatherlink.com 1.10,2013-01-19 17:16:00,
2013-01-19 12:31:00,49.9,30.0,30.15,SW,218,8.0,14.0,47,0.00,,,0.00,weatherlink.com 1.10,2013-01-19 17:31:00,
2013-01-19 12:46:00,50.3,30.0,30.14,SW,219,12.0,17.0,46,0.00,,,0.00,weatherlink.com 1.10,2013-01-19 17:46:00,
2013-01-19 13:01:00,50.6,30.0,30.12,SW,232,9.0,12.0,45,0.00,,,0.00,weatherlink.com 1.10,2013-01-19 18:01:00,
2013-01-19 13:17:00,51.1,30.0,30.11,SW,224,9.0,15.0,44,0.00,,,0.00,weatherlink.com 1.10,2013-01-19 18:17:00,
2013-01-19 13:32:00,51.5,29.0,30.10,SSW,207,10.0,15.0,43,0.00,,,0.00,weatherlink.com 1.10,2013-01-19 18:32:00,
2013-01-19 13:47:00,52.3,30.0,30.09,SSW,193,5.0,18.0,43,0.00,,,0.00,weatherlink.com 1.10,2013-01-19 18:47:00,
2013-01-19 14:17:00,53.0,29.0,30.07,SSW,199,2.0,15.0,40,0.00,,,0.00,weatherlink.com 1.10,2013-01-19 19:17:00,
2013-01-19 15:02:00,54.1,30.0,30.04,WSW,241,3.0,18.0,40,0.00,,,0.00,weatherlink.com 1.10,2013-01-19 20:02:00,
2013-01-19 15:17:00,54.6,30.0,30.04,SW,226,12.0,16.0,39,0.00,,,0.00,weatherlink.com 1.10,2013-01-19 20:17:00,
2013-01-19 17:02:00,54.4,29.0,29.99,SW,220,8.0,16.0,38,0.00,,,0.00,weatherlink.com 1.10,2013-01-19 22:02:00,
2013-01-19 17:17:00,54.1,29.0,29.98,SW,224,8.0,14.0,39,0.00,,,0.00,weatherlink.com 1.10,2013-01-19 22:17:00,
2013-01-19 17:32:00,53.1,29.0,29.98,SSW,205,3.0,17.0,40,0.00,,,0.00,weatherlink.com 1.10,2013-01-19 22:32:00,
2013-01-19 18:02:00,52.0,29.0,29.97,WSW,257,6.0,13.0,42,0.00,,,0.00,weatherlink.com 1.10,2013-01-19 23:02:00,
2013-01-19 18:17:00,51.6,29.0,29.97,West,259,6.0,17.0,42,0.00,,,0.00,weatherlink.com 1.10,2013-01-19 23:17:00,
2013-01-19 18:32:00,51.3,29.0,29.97,SW,218,7.0,14.0,42,0.00,,,0.00,weatherlink.com 1.10,2013-01-19 23:32:00,
2013-01-19 18:47:00,51.1,29.0,29.98,SE,143,3.0,17.0,43,0.00,,,0.00,weatherlink.com 1.10,2013-01-19 23:47:00,
2013-01-19 19:47:00,50.4,30.0,29.99,SW,235,6.0,14.0,46,0.00,,,0.00,weatherlink.com 1.10,2013-01-20 00:47:00,
2013-01-19 20:02:00,50.4,31.0,30.00,SW,219,8.0,15.0,47,0.00,,,0.00,weatherlink.com 1.10,2013-01-20 01:02:00,
2013-01-19 20:17:00,50.0,30.0,29.99,WSW,253,7.0,14.0,47,0.00,,,0.00,weatherlink.com 1.10,2013-01-20 01:17:00,
2013-01-19 21:17:00,48.8,31.0,29.98,SSW,203,6.0,12.0,50,0.00,,,0.00,weatherlink.com 1.10,2013-01-20 02:17:00,
2013-01-19 21:47:00,48.5,31.0,29.97,South,176,5.0,10.0,51,0.00,,,0.00,weatherlink.com 1.10,2013-01-20 02:47:00,
2013-01-19 22:17:00,48.4,31.0,29.98,SSW,210,6.0,14.0,51,0.00,,,0.00,weatherlink.com 1.10,2013-01-20 03:17:00,
2013-01-19 22:33:00,48.2,31.0,29.98,SSW,201,3.0,13.0,51,0.00,,,0.00,weatherlink.com 1.10,2013-01-20 03:33:00,
2013-01-19 23:03:00,47.7,31.0,29.98,SW,215,6.0,13.0,52,0.00,,,0.00,weatherlink.com 1.10,2013-01-20 04:03:00,
2013-01-19 23:18:00,47.9,31.0,29.98,South,176,7.0,19.0,52,0.00,,,0.00,weatherlink.com 1.10,2013-01-20 04:18:00,
2013-01-19 23:32:00,48.3,31.0,29.98,SW,218,6.0,13.0,52,0.00,,,0.00,weatherlink.com 1.10,2013-01-20 04:32:00,
2013-01-19 23:47:00,48.5,31.0,29.98,SW,232,8.0,13.0,52,0.00,,,0.00,weatherlink.com 1.10,2013-01-20 04:47:00,